Flag for Czech Republic Weather past 2 weeks in Prague, Czech Republic

Now
68 °F

Clear.


Feels Like: 68 °F
Forecast: 65 / 78 °F
Wind: 8 mph from North

Location: Prague Ruzyne Airport

Current Time: Jul 22, 2014 at 9:31:54 AM

Latest Report: Jul 22, 2014 at 9:00 AM


Visibility: 4 mi

Pressure: 29.89 "Hg

Humidity: 88%

Dew point: 64 °F

Location of PragueLocation

Historic Weather in Prague — Graph

°F

Prague temperature yesterday

Maximum temperature yesterday: 82 °F (at 3:00 PM)
Minimum temperature yesterday: 64 °F (at 8:30 PM)
Average temperature yesterday: 72 °F

Past Weeks' High & Low Weather Summary

 TemperatureHumidityPressure
High90 °F (Jul 20, 4:30 PM)100% (Jul 8, 4:30 AM)30.18 "Hg (Jul 8, 4:30 AM)
Low50 °F (Jul 13, 2:30 AM)31% (Jul 20, 4:30 PM)29.59 "Hg (Jul 9, 2:00 AM)
Average68 °F72%29.93 "Hg
* Reported Jul 7 8:00 AM — Jul 22 8:00 AM, Prague, Weather by CustomWeather, © 2014

Note: Actual official high and low records may vary slightly from our data, if they occured in-between our weather recording intervals... More about our weather records

Advertising

Prague weather history for previous 24 hours

 ConditionsComfort  
Time TempWeatherWind HumidityBarometerVisibility
8:00 AM
Jul 22
66 °FFog.8 mph94%29.89 "Hg3 mi
7:30 AM66 °FClear.7 mph94%29.89 "Hg4 mi
7:00 AM66 °FFog.7 mph94%29.86 "Hg3 mi
6:30 AM64 °FFog.6 mph100%29.86 "Hg2 mi
6:00 AM64 °FFog.3 mph94%29.86 "Hg2 mi
5:30 AM64 °FFog.6 mph100%29.86 "Hg2 mi
5:00 AM64 °FFog.7 mph100%29.86 "Hg3 mi
4:30 AM66 °FPassing clouds.5 mph94%29.86 "Hg6 mi
4:00 AM64 °FPassing clouds.5 mph100%29.83 "Hg4 mi
3:30 AM64 °FPassing clouds.5 mph100%29.83 "Hg6 mi
3:00 AM66 °FOvercast.5 mph94%29.86 "Hg6 mi
2:30 AM64 °FLow clouds.6 mph100%29.86 "Hg5 mi
2:00 AM64 °FFog.7 mph100%29.86 "Hg3 mi
1:30 AM64 °FFog.5 mph100%29.86 "Hg2 mi
1:00 AM64 °FLight rain. Fog.2 mph100%29.86 "Hg2 mi
12:30 AM64 °FLight rain. Fog.2 mph100%29.86 "Hg2 mi
12:00 AM66 °FLight rain. Partly cloudy.6 mph94%29.86 "Hg3 mi
11:30 PM
Jul 21
66 °FLight rain. Clear.6 mph94%29.83 "Hg4 mi
11:00 PM64 °FRain. Clear.8 mph94%29.83 "Hg4 mi
10:30 PM66 °FThundershowers. Passing clouds.7 mph94%29.86 "Hg4 mi
10:00 PM64 °FThundershowers. Partly sunny.3 mph94%29.86 "Hg3 mi
9:30 PM64 °FThundershowers. Broken clouds.6 mph94%29.86 "Hg5 mi
9:00 PM66 °FThundershowers. Scattered clouds.7 mph94%29.83 "HgN/A
8:30 PM64 °FThunderstorms. Cloudy.10 mph94%29.86 "Hg3 mi
8:02 PM68 °FStrong thunderstorms. Broken clouds.14 mph88%29.83 "Hg1 mi
7:30 PM66 °FThundershowers. Scattered clouds.8 mph94%29.80 "Hg3 mi
7:00 PM68 °FLight rain. Passing clouds.12 mph88%29.83 "HgN/A
6:30 PM68 °FLight rain. Clear.10 mph88%29.83 "HgN/A
6:00 PM70 °FLight rain. Clear.14 mph83%29.83 "HgN/A
5:30 PM70 °FSprinkles. Passing clouds.15 mph83%29.83 "HgN/A
5:00 PM72 °FThundershowers. Passing clouds.14 mph78%29.83 "HgN/A
4:30 PM72 °FThunderstorms. Scattered clouds.12 mph83%29.80 "HgN/A
4:03 PM75 °FThunderstorms. Scattered clouds.16 mph74%29.77 "HgN/A
4:00 PM75 °FThundershowers. Scattered clouds.15 mph74%29.80 "HgN/A
3:30 PM79 °FThundershowers. Passing clouds.17 mph70%29.77 "HgN/A
3:00 PM82 °FThundershowers. Scattered clouds.14 mph58%29.77 "HgN/A
2:30 PM81 °FScattered clouds.10 mph62%29.80 "HgN/A
2:00 PM81 °FScattered clouds.10 mph58%29.77 "HgN/A
1:30 PM81 °FScattered clouds.12 mph62%29.80 "HgN/A
1:00 PM81 °FScattered clouds.6 mph58%29.80 "HgN/A
12:30 PM81 °FScattered clouds.6 mph58%29.80 "HgN/A
12:00 PM79 °FScattered clouds.2 mph65%29.80 "HgN/A
11:30 AM79 °FPassing clouds.6 mph65%29.80 "HgN/A
11:00 AM79 °FPassing clouds.2 mph58%29.80 "HgN/A
10:30 AM77 °FPassing clouds.9 mph65%29.80 "HgN/A
10:00 AM77 °FPassing clouds.8 mph61%29.77 "HgN/A
9:30 AM77 °FPassing clouds.7 mph61%29.77 "HgN/A
9:00 AM75 °FSunny.7 mph65%29.77 "Hg10 mi
Weather by CustomWeather, © 2014

See weather overviewHow to use our weather pages